When you browse on this site, cookies collect data to enhance your experience and personalize the content and advertising you see.
Visit our Privacy Policy to learn more. By continuing to use the site, you agree to this use of cookies and data.
  • en Suisse
  • Liste des pays
  • À 7 jours
  • Température de l'eau
  • Carte satellitaire
  • Carte météo
  • Widgets météo
  • user-avatar
    Se connecter

    Météo par heure à Landau in der Pfalz

    Ce jour, 26 Mai, Dimanche

    Heure Température Précipitation Vent Pression Humidité
    00:00 +13°C° 0 mm 1 m/s 748 mmHg 79%
    01:00 +12°C° 0 mm 1 m/s 748 mmHg 81%
    02:00 +12°C° 0 mm 1 m/s 748 mmHg 83%
    03:00 +11°C° 0 mm 1 m/s 748 mmHg 84%
    04:00 +11°C° 0 mm 1 m/s 748 mmHg 85%
    05:00 +12°C° 0 mm 1 m/s 748 mmHg 83%
    06:00 +13°C° 0 mm 1 m/s 748 mmHg 81%
    07:00 +14°C° 0 mm 1 m/s 748 mmHg 79%
    08:00 +16°C° 0 mm 1 m/s 748 mmHg 72%
    09:00 +18°C° 0 mm 2 m/s 747 mmHg 66%
    10:00 +19°C° 0 mm 2 m/s 747 mmHg 59%
    11:00 +20°C° 0 mm 2 m/s 747 mmHg 56%
    12:00 +21°C° 0 mm 3 m/s 747 mmHg 53%
    13:00 +22°C° 0 mm 3 m/s 746 mmHg 50%
    14:00 +22°C° 0 mm 3 m/s 746 mmHg 50%
    15:00 +22°C° 0 mm 3 m/s 746 mmHg 50%
    16:00 +22°C° 0 mm 3 m/s 745 mmHg 50%
    17:00 +21°C° 0 mm 3 m/s 745 mmHg 56%
    18:00 +20°C° 0 mm 3 m/s 745 mmHg 62%
    19:00 +19°C° 0 mm 2 m/s 744 mmHg 68%
    20:00 +18°C° 0 mm 2 m/s 745 mmHg 74%
    21:00 +16°C° 0 mm 2 m/s 745 mmHg 80%
    22:00 +15°C° 0 mm 2 m/s 745 mmHg 86%
    23:00 +15°C° 0 mm 2 m/s 745 mmHg 88%

    Demain, 27 Mai, Lundi

    Heure Température Précipitation Vent Pression Humidité
    00:00 +14°C° 0 mm 2 m/s 745 mmHg 89%
    01:00 +14°C° 0 mm 2 m/s 744 mmHg 91%
    02:00 +13°C° 0 mm 2 m/s 744 mmHg 91%
    03:00 +13°C° 0 mm 2 m/s 744 mmHg 92%
    04:00 +13°C° 0 mm 2 m/s 743 mmHg 92%
    05:00 +13°C° 0 mm 3 m/s 743 mmHg 90%
    06:00 +13°C° 0 mm 3 m/s 743 mmHg 88%
    07:00 +14°C° 0 mm 3 m/s 743 mmHg 86%
    08:00 +16°C° 0 mm 3 m/s 743 mmHg 84%
    09:00 +17°C° 0 mm 3 m/s 743 mmHg 82%
    10:00 +18°C° 0 mm 4 m/s 743 mmHg 80%
    11:00 +18°C° 0.1 mm 4 m/s 743 mmHg 80%
    12:00 +17°C° 0.1 mm 4 m/s 743 mmHg 80%
    13:00 +17°C° 0.1 mm 4 m/s 742 mmHg 80%
    14:00 +18°C° 0 mm 3 m/s 742 mmHg 76%
    15:00 +19°C° 0 mm 3 m/s 742 mmHg 71%
    16:00 +20°C° 0 mm 2 m/s 742 mmHg 67%
    17:00 +19°C° 0.1 mm 2 m/s 742 mmHg 71%
    18:00 +18°C° 0.1 mm 2 m/s 742 mmHg 75%
    19:00 +18°C° 0.1 mm 2 m/s 742 mmHg 79%
    20:00 +17°C° 0 mm 2 m/s 742 mmHg 82%
    21:00 +15°C° 0 mm 2 m/s 742 mmHg 86%
    22:00 +14°C° 0 mm 1 m/s 742 mmHg 90%
    23:00 +14°C° 0 mm 1 m/s 742 mmHg 90%

    Après-demain, 28 Mai, Mardi

    Heure Température Précipitation Vent Pression Humidité
    00:00 +14°C° 0 mm 1 m/s 742 mmHg 89%
    01:00 +13°C° 0 mm 1 m/s 742 mmHg 89%
    02:00 +13°C° 0 mm 1 m/s 742 mmHg 88%
    03:00 +13°C° 0 mm 1 m/s 742 mmHg 87%
    04:00 +13°C° 0 mm 1 m/s 742 mmHg 85%
    05:00 +13°C° 0 mm 1 m/s 742 mmHg 84%
    06:00 +13°C° 0 mm 2 m/s 742 mmHg 83%
    07:00 +14°C° 0 mm 2 m/s 742 mmHg 82%
    08:00 +13°C° 0.1 mm 3 m/s 742 mmHg 76%
    09:00 +14°C° 0.1 mm 3 m/s 742 mmHg 69%
    10:00 +15°C° 0.1 mm 4 m/s 742 mmHg 63%
    11:00 +17°C° 0.1 mm 4 m/s 741 mmHg 60%
    12:00 +18°C° 0.1 mm 4 m/s 741 mmHg 57%
    13:00 +19°C° 0.1 mm 4 m/s 741 mmHg 54%
    14:00 +19°C° 0.3 mm 4 m/s 741 mmHg 55%
    15:00 +18°C° 0.3 mm 4 m/s 741 mmHg 57%
    16:00 +18°C° 0.3 mm 4 m/s 741 mmHg 58%
    17:00 +17°C° 0.3 mm 3 m/s 741 mmHg 64%
    18:00 +16°C° 0.3 mm 3 m/s 741 mmHg 71%
    19:00 +15°C° 0.3 mm 2 m/s 741 mmHg 77%
    20:00 +14°C° 0.2 mm 2 m/s 742 mmHg 80%
    21:00 +13°C° 0.2 mm 2 m/s 742 mmHg 83%
    22:00 +12°C° 0.2 mm 2 m/s 743 mmHg 87%
    23:00 +10°C° 0 mm 2 m/s 743 mmHg 88%

    29 Mai, Mercredi

    Heure Température Précipitation Vent Pression Humidité
    00:00 +9°C° 0 mm 2 m/s 743 mmHg 89%
    01:00 +9°C° 0 mm 2 m/s 744 mmHg 91%
    02:00 +8°C° 0 mm 2 m/s 744 mmHg 91%
    03:00 +8°C° 0 mm 2 m/s 744 mmHg 92%
    04:00 +8°C° 0 mm 2 m/s 744 mmHg 93%
    05:00 +9°C° 0 mm 2 m/s 745 mmHg 91%
    06:00 +10°C° 0 mm 2 m/s 745 mmHg 89%
    07:00 +10°C° 0 mm 2 m/s 746 mmHg 87%
    08:00 +12°C° 0 mm 2 m/s 746 mmHg 85%
    09:00 +12°C° 0 mm 2 m/s 747 mmHg 84%
    10:00 +13°C° 0 mm 2 m/s 747 mmHg 83%
    11:00 +14°C° 0.1 mm 2 m/s 747 mmHg 77%
    12:00 +15°C° 0.1 mm 2 m/s 747 mmHg 71%
    13:00 +16°C° 0.1 mm 2 m/s 747 mmHg 65%
    14:00 +17°C° 0.2 mm 3 m/s 748 mmHg 64%
    15:00 +17°C° 0.2 mm 3 m/s 748 mmHg 62%
    16:00 +18°C° 0.2 mm 3 m/s 748 mmHg 61%
    17:00 +17°C° 0.1 mm 3 m/s 748 mmHg 64%
    18:00 +17°C° 0.1 mm 3 m/s 748 mmHg 67%
    19:00 +16°C° 0.1 mm 2 m/s 749 mmHg 70%
    20:00 +14°C° 0 mm 2 m/s 749 mmHg 75%
    21:00 +13°C° 0 mm 2 m/s 750 mmHg 79%
    22:00 +11°C° 0 mm 1 m/s 750 mmHg 84%
    23:00 +11°C° 0 mm 1 m/s 751 mmHg 85%

    30 Mai, Jeudi

    Heure Température Précipitation Vent Pression Humidité
    00:00 +10°C° 0 mm 1 m/s 751 mmHg 85%
    01:00 +10°C° 0 mm 1 m/s 751 mmHg 86%
    02:00 +10°C° 0 mm 1 m/s 751 mmHg 86%
    03:00 +10°C° 0 mm 1 m/s 752 mmHg 86%
    04:00 +10°C° 0 mm 1 m/s 752 mmHg 85%
    05:00 +10°C° 0 mm 1 m/s 752 mmHg 83%
    06:00 +10°C° 0 mm 2 m/s 752 mmHg 81%
    07:00 +12°C° 0 mm 2 m/s 752 mmHg 79%
    08:00 +13°C° 0.2 mm 2 m/s 752 mmHg 76%
    09:00 +14°C° 0.2 mm 3 m/s 752 mmHg 72%
    10:00 +16°C° 0.2 mm 3 m/s 752 mmHg 69%
    11:00 +16°C° 0.2 mm 3 m/s 752 mmHg 70%
    12:00 +16°C° 0.2 mm 3 m/s 752 mmHg 72%
    13:00 +16°C° 0.2 mm 3 m/s 752 mmHg 73%
    14:00 +17°C° 0.2 mm 4 m/s 752 mmHg 71%
    15:00 +17°C° 0.2 mm 4 m/s 752 mmHg 68%
    16:00 +18°C° 0.2 mm 4 m/s 752 mmHg 66%
    17:00 +17°C° 0 mm 4 m/s 753 mmHg 69%
    18:00 +17°C° 0 mm 4 m/s 753 mmHg 72%
    19:00 +15°C° 0 mm 4 m/s 753 mmHg 75%
    20:00 +14°C° 0 mm 3 m/s 753 mmHg 81%
    21:00 +14°C° 0 mm 2 m/s 754 mmHg 86%
    22:00 +13°C° 0 mm 2 m/s 754 mmHg 91%
    23:00 +13°C° 0 mm 2 m/s 754 mmHg 92%

    31 Mai, Vendredi

    Heure Température Précipitation Vent Pression Humidité
    00:00 +13°C° 0 mm 2 m/s 754 mmHg 92%
    01:00 +13°C° 0 mm 2 m/s 754 mmHg 92%
    02:00 +13°C° 0.1 mm 2 m/s 754 mmHg 92%
    03:00 +13°C° 0.1 mm 2 m/s 754 mmHg 92%
    04:00 +13°C° 0.1 mm 2 m/s 754 mmHg 92%
    05:00 +14°C° 0 mm 2 m/s 754 mmHg 91%
    06:00 +14°C° 0 mm 2 m/s 755 mmHg 90%
    07:00 +14°C° 0 mm 3 m/s 755 mmHg 90%
    08:00 +14°C° 0 mm 3 m/s 755 mmHg 88%
    09:00 +16°C° 0 mm 3 m/s 755 mmHg 86%
    10:00 +17°C° 0 mm 3 m/s 755 mmHg 84%
    11:00 +18°C° 0.1 mm 3 m/s 755 mmHg 78%
    12:00 +20°C° 0.1 mm 3 m/s 755 mmHg 73%
    13:00 +21°C° 0.1 mm 3 m/s 755 mmHg 68%
    14:00 +22°C° 0.2 mm 3 m/s 755 mmHg 66%
    15:00 +22°C° 0.2 mm 4 m/s 755 mmHg 63%
    16:00 +22°C° 0.2 mm 4 m/s 755 mmHg 61%
    17:00 +22°C° 0 mm 3 m/s 755 mmHg 66%
    18:00 +21°C° 0 mm 3 m/s 755 mmHg 70%
    19:00 +20°C° 0 mm 3 m/s 755 mmHg 75%
    20:00 +19°C° 0 mm 2 m/s 755 mmHg 80%
    21:00 +17°C° 0 mm 2 m/s 755 mmHg 86%
    22:00 +16°C° 0 mm 2 m/s 756 mmHg 91%
    23:00 +16°C° 0 mm 2 m/s 756 mmHg 93%
    Voir plus